Year,Month,Day,Hour,Minute,Value (Times are PST for temperature in C)
2007,04,25,00,00,9.00
2007,04,25,00,01,9.00
2007,04,25,00,02,9.00
2007,04,25,00,03,9.00
2007,04,25,00,04,9.00
2007,04,25,00,05,9.00
2007,04,25,00,06,9.00
2007,04,25,00,07,9.00
2007,04,25,00,08,8.90
2007,04,25,00,09,8.90
2007,04,25,00,10,8.90
2007,04,25,00,11,8.90
2007,04,25,00,12,8.90
2007,04,25,00,13,8.90
2007,04,25,00,14,8.90
2007,04,25,00,15,8.90
2007,04,25,00,16,8.90
2007,04,25,00,17,8.90
2007,04,25,00,18,8.90
2007,04,25,00,19,8.90
2007,04,25,00,20,8.90
2007,04,25,00,21,8.90
2007,04,25,00,22,8.90
2007,04,25,00,23,8.90
2007,04,25,00,24,8.90
2007,04,25,00,25,8.90
2007,04,25,00,26,8.90
2007,04,25,00,27,8.90
2007,04,25,00,28,8.90
2007,04,25,00,29,8.90
2007,04,25,00,30,8.80
2007,04,25,00,31,8.80
2007,04,25,00,32,8.80
2007,04,25,00,33,8.80
2007,04,25,00,34,8.80
2007,04,25,00,35,8.80
2007,04,25,00,36,8.80
2007,04,25,00,37,8.80
2007,04,25,00,38,8.80
2007,04,25,00,39,8.80
2007,04,25,00,40,8.80
2007,04,25,00,41,8.80
2007,04,25,00,42,8.80
2007,04,25,00,43,8.80
2007,04,25,00,44,8.80
2007,04,25,00,45,8.80
2007,04,25,00,46,8.80
2007,04,25,00,47,8.80
2007,04,25,00,48,8.80
2007,04,25,00,49,8.80
2007,04,25,00,50,8.80
2007,04,25,00,51,8.80
2007,04,25,00,52,8.80
2007,04,25,00,53,8.80
2007,04,25,00,54,8.80
2007,04,25,00,55,8.80
2007,04,25,00,56,8.80
2007,04,25,00,57,8.80
2007,04,25,00,58,8.80
2007,04,25,00,59,8.80
2007,04,25,01,00,8.80
2007,04,25,01,01,8.70
2007,04,25,01,02,8.70
2007,04,25,01,03,8.70
2007,04,25,01,04,8.70
2007,04,25,01,05,8.60
2007,04,25,01,06,8.60
2007,04,25,01,07,8.60
2007,04,25,01,08,8.60
2007,04,25,01,09,8.50
2007,04,25,01,10,8.50
2007,04,25,01,11,8.50
2007,04,25,01,12,8.50
2007,04,25,01,13,8.40
2007,04,25,01,14,8.40
2007,04,25,01,15,8.40
2007,04,25,01,16,8.40
2007,04,25,01,17,8.40
2007,04,25,01,18,8.40
2007,04,25,01,19,8.40
2007,04,25,01,20,8.40
2007,04,25,01,21,8.30
2007,04,25,01,22,8.30
2007,04,25,01,23,8.30
2007,04,25,01,24,8.30
2007,04,25,01,25,8.30
2007,04,25,01,26,8.20
2007,04,25,01,27,8.20
2007,04,25,01,28,8.20
2007,04,25,01,29,8.10
2007,04,25,01,30,8.10
2007,04,25,01,31,8.00
2007,04,25,01,32,8.00
2007,04,25,01,33,7.90
2007,04,25,01,34,7.90
2007,04,25,01,35,7.80
2007,04,25,01,36,7.80
2007,04,25,01,37,7.80
2007,04,25,01,38,7.70
2007,04,25,01,39,7.70
2007,04,25,01,40,7.70
2007,04,25,01,41,7.60
2007,04,25,01,42,7.60
2007,04,25,01,43,7.60
2007,04,25,01,44,7.60
2007,04,25,01,45,7.60
2007,04,25,01,46,7.50
2007,04,25,01,47,7.50
2007,04,25,01,48,7.40
2007,04,25,01,49,7.40
2007,04,25,01,50,7.40
2007,04,25,01,51,7.40
2007,04,25,01,52,7.40
2007,04,25,01,53,7.30
2007,04,25,01,54,7.30
2007,04,25,01,55,7.30
2007,04,25,01,56,7.30
2007,04,25,01,57,7.30
2007,04,25,01,58,7.20
2007,04,25,01,59,7.20
2007,04,25,02,00,7.20
2007,04,25,02,01,7.20
2007,04,25,02,02,7.20
2007,04,25,02,03,7.20
2007,04,25,02,04,7.20
2007,04,25,02,05,7.20
2007,04,25,02,06,7.20
2007,04,25,02,07,7.20
2007,04,25,02,08,7.20
2007,04,25,02,09,7.20
2007,04,25,02,10,7.20
2007,04,25,02,11,7.10
2007,04,25,02,12,7.10
2007,04,25,02,13,7.10
2007,04,25,02,14,7.00
2007,04,25,02,15,7.00
2007,04,25,02,16,7.00
2007,04,25,02,17,7.00
2007,04,25,02,18,6.90
2007,04,25,02,19,6.90
2007,04,25,02,20,6.90
2007,04,25,02,21,6.90
2007,04,25,02,22,6.80
2007,04,25,02,23,6.80
2007,04,25,02,24,6.80
2007,04,25,02,25,6.80
2007,04,25,02,26,6.70
2007,04,25,02,27,6.70
2007,04,25,02,28,6.70
2007,04,25,02,29,6.70
2007,04,25,02,30,6.60
2007,04,25,02,31,6.60
2007,04,25,02,32,6.60
2007,04,25,02,33,6.60
2007,04,25,02,34,6.60
2007,04,25,02,35,6.60
2007,04,25,02,36,6.60
2007,04,25,02,37,6.60
2007,04,25,02,38,6.60
2007,04,25,02,39,6.50
2007,04,25,02,40,6.50
2007,04,25,02,41,6.50
2007,04,25,02,42,6.50
2007,04,25,02,43,6.40
2007,04,25,02,44,6.40
2007,04,25,02,45,6.40
2007,04,25,02,46,6.40
2007,04,25,02,47,6.40
2007,04,25,02,48,6.30
2007,04,25,02,49,6.30
2007,04,25,02,50,6.30
2007,04,25,02,51,6.30
2007,04,25,02,52,6.30
2007,04,25,02,53,6.30
2007,04,25,02,54,6.30
2007,04,25,02,55,6.30
2007,04,25,02,56,6.30
2007,04,25,02,57,6.20
2007,04,25,02,58,6.20
2007,04,25,02,59,6.20
2007,04,25,03,00,6.20
2007,04,25,03,01,6.20
2007,04,25,03,02,6.20
2007,04,25,03,03,6.20
2007,04,25,03,04,6.30
2007,04,25,03,05,6.30
2007,04,25,03,06,6.30
2007,04,25,03,07,6.30
2007,04,25,03,08,6.30
2007,04,25,03,09,6.30
2007,04,25,03,10,6.30
2007,04,25,03,11,6.30
2007,04,25,03,12,6.30
2007,04,25,03,13,6.30
2007,04,25,03,14,6.30
2007,04,25,03,15,6.30
2007,04,25,03,16,6.30
2007,04,25,03,17,6.30
2007,04,25,03,18,6.20
2007,04,25,03,19,6.20
2007,04,25,03,20,6.20
2007,04,25,03,21,6.20
2007,04,25,03,22,6.20
2007,04,25,03,23,6.20
2007,04,25,03,24,6.20
2007,04,25,03,25,6.20
2007,04,25,03,26,6.20
2007,04,25,03,27,6.20
2007,04,25,03,28,6.10
2007,04,25,03,29,6.10
2007,04,25,03,30,6.10
2007,04,25,03,31,6.10
2007,04,25,03,32,6.00
2007,04,25,03,33,6.00
2007,04,25,03,34,6.00
2007,04,25,03,35,6.00
2007,04,25,03,36,6.00
2007,04,25,03,37,6.00
2007,04,25,03,38,6.00
2007,04,25,03,39,6.00
2007,04,25,03,40,6.00
2007,04,25,03,41,6.00
2007,04,25,03,42,6.00
2007,04,25,03,43,6.00
2007,04,25,03,44,6.00
2007,04,25,03,45,5.90
2007,04,25,03,46,5.90
2007,04,25,03,47,5.90
2007,04,25,03,48,5.90
2007,04,25,03,49,5.90
2007,04,25,03,50,5.90
2007,04,25,03,51,5.90
2007,04,25,03,52,5.90
2007,04,25,03,53,5.90
2007,04,25,03,54,5.80
2007,04,25,03,55,5.80
2007,04,25,03,56,5.80
2007,04,25,03,57,5.80
2007,04,25,03,58,5.80
2007,04,25,03,59,5.80
2007,04,25,04,00,5.80
2007,04,25,04,01,5.70
2007,04,25,04,02,5.70
2007,04,25,04,03,5.70
2007,04,25,04,04,5.70
2007,04,25,04,05,5.70
2007,04,25,04,06,5.70
2007,04,25,04,07,5.70
2007,04,25,04,08,5.70
2007,04,25,04,09,5.70
2007,04,25,04,10,5.70
2007,04,25,04,11,5.70
2007,04,25,04,12,5.70
2007,04,25,04,13,5.70
2007,04,25,04,14,5.70
2007,04,25,04,15,5.70
2007,04,25,04,16,5.70
2007,04,25,04,17,5.70
2007,04,25,04,18,5.60
2007,04,25,04,19,5.60
2007,04,25,04,20,5.60
2007,04,25,04,21,5.60
2007,04,25,04,22,5.60
2007,04,25,04,23,5.60
2007,04,25,04,24,5.60
2007,04,25,04,25,5.60
2007,04,25,04,26,5.50
2007,04,25,04,27,5.50
2007,04,25,04,28,5.50
2007,04,25,04,29,5.50
2007,04,25,04,30,5.50
2007,04,25,04,31,5.50
2007,04,25,04,32,5.50
2007,04,25,04,33,5.50
2007,04,25,04,34,5.50
2007,04,25,04,35,5.50
2007,04,25,04,36,5.50
2007,04,25,04,37,5.50
2007,04,25,04,38,5.50
2007,04,25,04,39,5.60
2007,04,25,04,40,5.60
2007,04,25,04,41,5.60
2007,04,25,04,42,5.60
2007,04,25,04,43,5.60
2007,04,25,04,44,5.70
2007,04,25,04,45,5.70
2007,04,25,04,46,5.80
2007,04,25,04,47,5.90
2007,04,25,04,48,5.90
2007,04,25,04,49,6.00
2007,04,25,04,50,6.10
2007,04,25,04,51,6.20
2007,04,25,04,52,6.30
2007,04,25,04,53,6.40
2007,04,25,04,54,6.40
2007,04,25,04,55,6.50
2007,04,25,04,56,6.50
2007,04,25,04,57,6.60
2007,04,25,04,58,6.60
2007,04,25,04,59,6.60
2007,04,25,05,00,6.60
2007,04,25,05,01,6.70
2007,04,25,05,02,6.70
2007,04,25,05,03,6.70
2007,04,25,05,04,6.70
2007,04,25,05,05,6.80
2007,04,25,05,06,6.80
2007,04,25,05,07,6.80
2007,04,25,05,08,6.90
2007,04,25,05,09,6.90
2007,04,25,05,10,6.90
2007,04,25,05,11,7.00
2007,04,25,05,12,7.00
2007,04,25,05,13,7.00
2007,04,25,05,14,7.10
2007,04,25,05,15,7.10
2007,04,25,05,16,7.10
2007,04,25,05,17,7.10
2007,04,25,05,18,7.10
2007,04,25,05,19,7.10
2007,04,25,05,20,7.10
2007,04,25,05,21,7.20
2007,04,25,05,22,7.20
2007,04,25,05,23,7.20
2007,04,25,05,24,7.20
2007,04,25,05,25,7.20
2007,04,25,05,26,7.20
2007,04,25,05,27,7.20
2007,04,25,05,28,7.20
2007,04,25,05,29,7.20
2007,04,25,05,30,7.20
2007,04,25,05,31,7.10
2007,04,25,05,32,7.10
2007,04,25,05,33,7.10
2007,04,25,05,34,7.10
2007,04,25,05,35,7.00
2007,04,25,05,36,7.00
2007,04,25,05,37,7.00
2007,04,25,05,38,6.90
2007,04,25,05,39,6.90
2007,04,25,05,40,6.90
2007,04,25,05,41,6.90
2007,04,25,05,42,6.90
2007,04,25,05,43,6.90
2007,04,25,05,44,6.90
2007,04,25,05,45,6.90
2007,04,25,05,46,6.90
2007,04,25,05,47,6.90
2007,04,25,05,48,6.90
2007,04,25,05,49,6.90
2007,04,25,05,50,6.90
2007,04,25,05,51,6.90
2007,04,25,05,52,6.90
2007,04,25,05,53,6.80
2007,04,25,05,54,6.80
2007,04,25,05,55,6.80
2007,04,25,05,56,6.80
2007,04,25,05,57,6.80
2007,04,25,05,58,6.80
2007,04,25,05,59,6.70
2007,04,25,06,00,6.70
2007,04,25,06,01,6.70
2007,04,25,06,02,6.70
2007,04,25,06,03,6.70
2007,04,25,06,04,6.70
2007,04,25,06,05,6.70
2007,04,25,06,06,6.70
2007,04,25,06,07,6.70
2007,04,25,06,08,6.70
2007,04,25,06,09,6.70
2007,04,25,06,10,6.70
2007,04,25,06,11,6.70
2007,04,25,06,12,6.70
2007,04,25,06,13,6.70
2007,04,25,06,14,6.70
2007,04,25,06,15,6.70
2007,04,25,06,16,6.70
2007,04,25,06,17,6.70
2007,04,25,06,18,6.70
2007,04,25,06,19,6.70
2007,04,25,06,20,6.70
2007,04,25,06,21,6.70
2007,04,25,06,22,6.80
2007,04,25,06,23,6.80
2007,04,25,06,24,6.80
2007,04,25,06,25,6.80
2007,04,25,06,26,6.80
2007,04,25,06,27,6.80
2007,04,25,06,28,6.80
2007,04,25,06,29,6.80
2007,04,25,06,30,6.80
2007,04,25,06,31,6.90
2007,04,25,06,32,6.90
2007,04,25,06,33,6.90
2007,04,25,06,34,6.90
2007,04,25,06,35,6.90
2007,04,25,06,36,7.00
2007,04,25,06,37,7.00
2007,04,25,06,38,7.00
2007,04,25,06,39,7.10
2007,04,25,06,40,7.10
2007,04,25,06,41,7.10
2007,04,25,06,42,7.10
2007,04,25,06,43,7.10
2007,04,25,06,44,7.10
2007,04,25,06,45,7.20
2007,04,25,06,46,7.20
2007,04,25,06,47,7.20
2007,04,25,06,48,7.20
2007,04,25,06,49,7.20
2007,04,25,06,50,7.30
2007,04,25,06,51,7.30
2007,04,25,06,52,7.30
2007,04,25,06,53,7.30
2007,04,25,06,54,7.40
2007,04,25,06,55,7.40
2007,04,25,06,56,7.50
2007,04,25,06,57,7.50
2007,04,25,06,58,7.60
2007,04,25,06,59,7.60
2007,04,25,07,00,7.60
2007,04,25,07,01,7.70
2007,04,25,07,02,7.70
2007,04,25,07,03,7.70
2007,04,25,07,04,7.70
2007,04,25,07,05,7.80
2007,04,25,07,06,7.90
2007,04,25,07,07,8.10
2007,04,25,07,08,8.20
2007,04,25,07,09,8.20
2007,04,25,07,10,8.20
2007,04,25,07,11,8.20
2007,04,25,07,12,8.30
2007,04,25,07,13,8.50
2007,04,25,07,14,8.60
2007,04,25,07,15,8.70
2007,04,25,07,16,8.90
2007,04,25,07,17,9.00
2007,04,25,07,18,9.20
2007,04,25,07,19,9.40
2007,04,25,07,20,9.60
2007,04,25,07,21,9.70
2007,04,25,07,22,9.90
2007,04,25,07,23,10.00
2007,04,25,07,24,10.10
2007,04,25,07,25,10.10
2007,04,25,07,26,10.20
2007,04,25,07,27,10.30
2007,04,25,07,28,10.40
2007,04,25,07,29,10.50
2007,04,25,07,30,10.60
2007,04,25,07,31,10.70
2007,04,25,07,32,10.70
2007,04,25,07,33,10.80
2007,04,25,07,34,10.80
2007,04,25,07,35,10.90
2007,04,25,07,36,10.90
2007,04,25,07,37,11.00
2007,04,25,07,38,11.00
2007,04,25,07,39,11.00
2007,04,25,07,40,10.90
2007,04,25,07,41,10.70
2007,04,25,07,42,10.60
2007,04,25,07,43,10.60
2007,04,25,07,44,10.60
2007,04,25,07,45,10.70
2007,04,25,07,46,10.60
2007,04,25,07,47,10.60
2007,04,25,07,48,10.40
2007,04,25,07,49,10.30
2007,04,25,07,50,10.20
2007,04,25,07,51,10.10
2007,04,25,07,52,10.00
2007,04,25,07,53,9.90
2007,04,25,07,54,9.80
2007,04,25,07,55,9.80
2007,04,25,07,56,9.70
2007,04,25,07,57,9.70
2007,04,25,07,58,9.60
2007,04,25,07,59,9.60
2007,04,25,08,00,9.50
2007,04,25,08,01,9.50
2007,04,25,08,02,9.50
2007,04,25,08,03,9.50
2007,04,25,08,04,9.50
2007,04,25,08,05,9.50
2007,04,25,08,06,9.50
2007,04,25,08,07,9.50
2007,04,25,08,08,9.40
2007,04,25,08,09,9.30
2007,04,25,08,10,9.30
2007,04,25,08,11,9.20
2007,04,25,08,12,9.20
2007,04,25,08,13,9.20
2007,04,25,08,14,9.20
2007,04,25,08,15,9.20
2007,04,25,08,16,9.30
2007,04,25,08,17,9.30
2007,04,25,08,18,9.30
2007,04,25,08,19,9.40
2007,04,25,08,20,9.40
2007,04,25,08,21,9.40
2007,04,25,08,22,9.40
2007,04,25,08,23,9.40
2007,04,25,08,24,9.40
2007,04,25,08,25,9.40
2007,04,25,08,26,9.40
2007,04,25,08,27,9.40
2007,04,25,08,28,9.40
2007,04,25,08,29,9.40
2007,04,25,08,30,9.50
2007,04,25,08,31,9.50
2007,04,25,08,32,9.50
2007,04,25,08,33,9.60
2007,04,25,08,34,9.60
2007,04,25,08,35,9.60
2007,04,25,08,36,9.60
2007,04,25,08,37,9.60
2007,04,25,08,38,9.60
2007,04,25,08,39,9.70
2007,04,25,08,40,9.70
2007,04,25,08,41,9.70
2007,04,25,08,42,9.70
2007,04,25,08,43,9.70
2007,04,25,08,44,9.80
2007,04,25,08,45,9.80
2007,04,25,08,46,9.80
2007,04,25,08,47,9.90
2007,04,25,08,48,9.90
2007,04,25,08,49,9.90
2007,04,25,08,50,9.90
2007,04,25,08,51,9.90
2007,04,25,08,52,9.90
2007,04,25,08,53,9.90
2007,04,25,08,54,9.90
2007,04,25,08,55,10.10
2007,04,25,08,56,10.30
2007,04,25,08,57,10.30
2007,04,25,08,58,10.20
2007,04,25,08,59,10.20
2007,04,25,09,00,10.20
2007,04,25,09,01,10.20
2007,04,25,09,02,10.20
2007,04,25,09,03,10.20
2007,04,25,09,04,10.20
2007,04,25,09,05,10.20
2007,04,25,09,06,10.20
2007,04,25,09,07,10.20
2007,04,25,09,08,10.20
2007,04,25,09,09,10.20
2007,04,25,09,10,10.20
2007,04,25,09,11,10.30
2007,04,25,09,12,10.30
2007,04,25,09,13,10.30
2007,04,25,09,14,10.30
2007,04,25,09,15,10.30
2007,04,25,09,16,10.40
2007,04,25,09,17,10.40
2007,04,25,09,18,10.40
2007,04,25,09,19,10.40
2007,04,25,09,20,10.40
2007,04,25,09,21,10.40
2007,04,25,09,22,10.40
2007,04,25,09,23,10.40
2007,04,25,09,24,10.40
2007,04,25,09,25,10.40
2007,04,25,09,26,10.50
2007,04,25,09,27,10.60
2007,04,25,09,28,10.60
2007,04,25,09,29,10.60
2007,04,25,09,30,10.60
2007,04,25,09,31,10.60
2007,04,25,09,32,10.50
2007,04,25,09,33,10.50
2007,04,25,09,34,10.50
2007,04,25,09,35,10.50
2007,04,25,09,36,10.40
2007,04,25,09,37,10.50
2007,04,25,09,38,10.50
2007,04,25,09,39,10.50
2007,04,25,09,40,10.50
2007,04,25,09,41,10.40
2007,04,25,09,42,10.40
2007,04,25,09,43,10.40
2007,04,25,09,44,10.30
2007,04,25,09,45,10.30
2007,04,25,09,46,10.30
2007,04,25,09,47,10.30
2007,04,25,09,48,10.30
2007,04,25,09,49,10.30
2007,04,25,09,50,10.30
2007,04,25,09,51,10.40
2007,04,25,09,52,10.50
2007,04,25,09,53,10.50
2007,04,25,09,54,10.50
2007,04,25,09,55,10.40
2007,04,25,09,56,10.40
2007,04,25,09,57,10.40
2007,04,25,09,58,10.50
2007,04,25,09,59,10.60
2007,04,25,10,00,10.60
2007,04,25,10,01,10.60
2007,04,25,10,02,10.60
2007,04,25,10,03,10.60
2007,04,25,10,04,10.60
2007,04,25,10,05,10.50
2007,04,25,10,06,10.50
2007,04,25,10,07,10.40
2007,04,25,10,08,10.40
2007,04,25,10,09,10.30
2007,04,25,10,10,10.20
2007,04,25,10,11,10.20
2007,04,25,10,12,10.10
2007,04,25,10,13,10.10
2007,04,25,10,14,10.10
2007,04,25,10,15,10.20
2007,04,25,10,16,10.30
2007,04,25,10,17,10.30
2007,04,25,10,18,10.30
2007,04,25,10,19,10.30
2007,04,25,10,20,10.30
2007,04,25,10,21,10.30
2007,04,25,10,22,10.20
2007,04,25,10,23,10.20
2007,04,25,10,24,10.20
2007,04,25,10,25,10.20
2007,04,25,10,26,10.20
2007,04,25,10,27,10.20
2007,04,25,10,28,10.10
2007,04,25,10,29,10.10
2007,04,25,10,30,10.10
2007,04,25,10,31,10.10
2007,04,25,10,32,10.10
2007,04,25,10,33,10.10
2007,04,25,10,34,10.10
2007,04,25,10,35,10.10
2007,04,25,10,36,10.00
2007,04,25,10,37,10.00
2007,04,25,10,38,10.10
2007,04,25,10,39,10.10
2007,04,25,10,40,10.20
2007,04,25,10,41,10.20
2007,04,25,10,42,10.30
2007,04,25,10,43,10.30
2007,04,25,10,44,10.30
2007,04,25,10,45,10.10
2007,04,25,10,46,10.00
2007,04,25,10,47,9.90
2007,04,25,10,48,9.80
2007,04,25,10,49,9.80
2007,04,25,10,50,9.80
2007,04,25,10,51,9.80
2007,04,25,10,52,9.80
2007,04,25,10,53,9.90
2007,04,25,10,54,9.90
2007,04,25,10,55,10.00
2007,04,25,10,56,10.00
2007,04,25,10,57,10.10
2007,04,25,10,58,10.10
2007,04,25,10,59,10.10
2007,04,25,11,00,10.10
2007,04,25,11,01,10.00
2007,04,25,11,02,10.00
2007,04,25,11,03,9.90
2007,04,25,11,04,9.80
2007,04,25,11,05,9.80
2007,04,25,11,06,9.80
2007,04,25,11,07,9.70
2007,04,25,11,08,9.80
2007,04,25,11,09,9.70
2007,04,25,11,10,9.70
2007,04,25,11,11,9.70
2007,04,25,11,12,9.70
2007,04,25,11,13,9.70
2007,04,25,11,14,9.70
2007,04,25,11,15,9.60
2007,04,25,11,16,9.60
2007,04,25,11,17,9.60
2007,04,25,11,18,9.60
2007,04,25,11,19,9.60
2007,04,25,11,20,9.60
2007,04,25,11,21,9.70
2007,04,25,11,22,9.80
2007,04,25,11,23,9.90
2007,04,25,11,24,9.90
2007,04,25,11,25,9.90
2007,04,25,11,26,9.90
2007,04,25,11,27,9.90
2007,04,25,11,28,9.90
2007,04,25,11,29,9.90
2007,04,25,11,30,9.80
2007,04,25,11,31,9.80
2007,04,25,11,32,9.80
2007,04,25,11,33,9.80
2007,04,25,11,34,9.90
2007,04,25,11,35,9.90
2007,04,25,11,36,9.90
2007,04,25,11,37,9.90
2007,04,25,11,38,9.90
2007,04,25,11,39,9.90
2007,04,25,11,40,9.90
2007,04,25,11,41,9.90
2007,04,25,11,42,10.00
2007,04,25,11,43,9.90
2007,04,25,11,44,9.90
2007,04,25,11,45,10.00
2007,04,25,11,46,10.00
2007,04,25,11,47,10.00
2007,04,25,11,48,10.00
2007,04,25,11,49,10.00
2007,04,25,11,50,10.00
2007,04,25,11,51,10.00
2007,04,25,11,52,10.10
2007,04,25,11,53,10.10
2007,04,25,11,54,10.00
2007,04,25,11,55,9.90
2007,04,25,11,56,10.00
2007,04,25,11,57,10.00
2007,04,25,11,58,9.90
2007,04,25,11,59,9.90
2007,04,25,12,00,9.90
2007,04,25,12,01,9.90
2007,04,25,12,02,10.00
2007,04,25,12,03,10.10
2007,04,25,12,04,10.10
2007,04,25,12,05,10.10
2007,04,25,12,06,10.20
2007,04,25,12,07,10.20
2007,04,25,12,08,10.20
2007,04,25,12,09,10.20
2007,04,25,12,10,10.20
2007,04,25,12,11,10.20
2007,04,25,12,12,10.20
2007,04,25,12,13,10.20
2007,04,25,12,14,10.20
2007,04,25,12,15,10.20
2007,04,25,12,16,10.10
2007,04,25,12,17,10.20
2007,04,25,12,18,10.20
2007,04,25,12,19,10.20
2007,04,25,12,20,10.20
2007,04,25,12,21,10.20
2007,04,25,12,22,10.10
2007,04,25,12,23,10.00
2007,04,25,12,24,10.00
2007,04,25,12,25,10.00
2007,04,25,12,26,10.00
2007,04,25,12,27,10.00
2007,04,25,12,28,10.10
2007,04,25,12,29,10.20
2007,04,25,12,30,10.30
2007,04,25,12,31,10.30
2007,04,25,12,32,10.30
2007,04,25,12,33,10.20
2007,04,25,12,34,10.20
2007,04,25,12,35,10.10
2007,04,25,12,36,10.10
2007,04,25,12,37,10.00
2007,04,25,12,38,10.00
2007,04,25,12,39,10.10
2007,04,25,12,40,10.10
2007,04,25,12,41,10.10
2007,04,25,12,42,10.10
2007,04,25,12,43,10.10
2007,04,25,12,44,10.10
2007,04,25,12,45,10.10
2007,04,25,12,46,10.20
2007,04,25,12,47,10.20
2007,04,25,12,48,10.10
2007,04,25,12,49,10.10
2007,04,25,12,50,10.20
2007,04,25,12,51,10.20
2007,04,25,12,52,10.30
2007,04,25,12,53,10.30
2007,04,25,12,54,10.30
2007,04,25,12,55,10.40
2007,04,25,12,56,10.50
2007,04,25,12,57,10.60
2007,04,25,12,58,10.60
2007,04,25,12,59,10.50
2007,04,25,13,00,10.50
2007,04,25,13,01,10.30
2007,04,25,13,02,10.20
2007,04,25,13,03,10.10
2007,04,25,13,04,10.10
2007,04,25,13,05,10.10
2007,04,25,13,06,10.00
2007,04,25,13,07,10.00
2007,04,25,13,08,10.10
2007,04,25,13,09,10.20
2007,04,25,13,10,10.30
2007,04,25,13,11,10.30
2007,04,25,13,12,10.20
2007,04,25,13,13,10.20
2007,04,25,13,14,10.20
2007,04,25,13,15,10.30
2007,04,25,13,16,10.50
2007,04,25,13,17,10.60
2007,04,25,13,18,10.60
2007,04,25,13,19,10.70
2007,04,25,13,20,10.70
2007,04,25,13,21,10.70
2007,04,25,13,22,10.80
2007,04,25,13,23,10.80
2007,04,25,13,24,10.80
2007,04,25,13,25,10.90
2007,04,25,13,26,10.90
2007,04,25,13,27,10.90
2007,04,25,13,28,10.90
2007,04,25,13,29,10.90
2007,04,25,13,30,10.90
2007,04,25,13,31,10.90
2007,04,25,13,32,10.90
2007,04,25,13,33,10.90
2007,04,25,13,34,10.90
2007,04,25,13,35,10.90
2007,04,25,13,36,11.00
2007,04,25,13,37,11.00
2007,04,25,13,38,11.00
2007,04,25,13,39,11.00
2007,04,25,13,40,10.90
2007,04,25,13,41,10.90
2007,04,25,13,42,10.80
2007,04,25,13,43,10.90
2007,04,25,13,44,10.90
2007,04,25,13,45,11.00
2007,04,25,13,46,11.00
2007,04,25,13,47,10.90
2007,04,25,13,48,10.80
2007,04,25,13,49,10.80
2007,04,25,13,50,10.80
2007,04,25,13,51,10.80
2007,04,25,13,52,10.70
2007,04,25,13,53,10.80
2007,04,25,13,54,10.90
2007,04,25,13,55,11.00
2007,04,25,13,56,10.90
2007,04,25,13,57,11.00
2007,04,25,13,58,11.00
2007,04,25,13,59,10.90
2007,04,25,14,00,10.90
2007,04,25,14,01,10.90
2007,04,25,14,02,10.80
2007,04,25,14,03,10.80
2007,04,25,14,04,10.60
2007,04,25,14,05,10.50
2007,04,25,14,06,10.50
2007,04,25,14,07,10.50
2007,04,25,14,08,10.50
2007,04,25,14,09,10.50
2007,04,25,14,10,10.60
2007,04,25,14,11,10.60
2007,04,25,14,12,10.60
2007,04,25,14,13,10.60
2007,04,25,14,14,10.60
2007,04,25,14,15,10.70
2007,04,25,14,16,10.70
2007,04,25,14,17,10.80
2007,04,25,14,18,10.90
2007,04,25,14,19,10.80
2007,04,25,14,20,10.90
2007,04,25,14,21,10.90
2007,04,25,14,22,10.90
2007,04,25,14,23,10.90
2007,04,25,14,24,11.00
2007,04,25,14,25,11.10
2007,04,25,14,26,11.10
2007,04,25,14,27,11.10
2007,04,25,14,28,11.10
2007,04,25,14,29,11.10
2007,04,25,14,30,11.20
2007,04,25,14,31,11.20
2007,04,25,14,32,11.20
2007,04,25,14,33,11.20
2007,04,25,14,34,11.10
2007,04,25,14,35,11.20
2007,04,25,14,36,11.20
2007,04,25,14,37,11.20
2007,04,25,14,38,11.10
2007,04,25,14,39,11.10
2007,04,25,14,40,11.20
2007,04,25,14,41,11.10
2007,04,25,14,42,11.10
2007,04,25,14,43,11.10
2007,04,25,14,44,11.10
2007,04,25,14,45,11.10
2007,04,25,14,46,11.10
2007,04,25,14,47,11.20
2007,04,25,14,48,11.20
2007,04,25,14,49,11.20
2007,04,25,14,50,11.30
2007,04,25,14,51,11.30
2007,04,25,14,52,11.40
2007,04,25,14,53,11.50
2007,04,25,14,54,11.50
2007,04,25,14,55,11.60
2007,04,25,14,56,11.60
2007,04,25,14,57,11.60
2007,04,25,14,58,11.60
2007,04,25,14,59,11.60
2007,04,25,15,00,11.60
2007,04,25,15,01,11.60
2007,04,25,15,02,11.60
2007,04,25,15,03,11.50
2007,04,25,15,04,11.40
2007,04,25,15,05,11.40
2007,04,25,15,06,11.50
2007,04,25,15,07,11.50
2007,04,25,15,08,11.50
2007,04,25,15,09,11.40
2007,04,25,15,10,11.40
2007,04,25,15,11,11.40
2007,04,25,15,12,11.30
2007,04,25,15,13,11.30
2007,04,25,15,14,11.30
2007,04,25,15,15,11.20
2007,04,25,15,16,11.20
2007,04,25,15,17,11.20
2007,04,25,15,18,11.20
2007,04,25,15,19,11.20
2007,04,25,15,20,11.20
2007,04,25,15,21,11.20
2007,04,25,15,22,11.10
2007,04,25,15,23,11.10
2007,04,25,15,24,11.10
2007,04,25,15,25,11.10
2007,04,25,15,26,11.10
2007,04,25,15,27,11.20
2007,04,25,15,28,11.30
2007,04,25,15,29,11.30
2007,04,25,15,30,11.20
2007,04,25,15,31,11.20
2007,04,25,15,32,11.10
2007,04,25,15,33,11.10
2007,04,25,15,34,11.00
2007,04,25,15,35,11.00
2007,04,25,15,36,11.00
2007,04,25,15,37,11.10
2007,04,25,15,38,11.10
2007,04,25,15,39,11.10
2007,04,25,15,40,11.10
2007,04,25,15,41,11.10
2007,04,25,15,42,11.10
2007,04,25,15,43,11.10
2007,04,25,15,44,11.20
2007,04,25,15,45,11.20
2007,04,25,15,46,11.20
2007,04,25,15,47,11.20
2007,04,25,15,48,11.20
2007,04,25,15,49,11.20
2007,04,25,15,50,11.20
2007,04,25,15,51,11.20
2007,04,25,15,52,11.30
2007,04,25,15,53,11.30
2007,04,25,15,54,11.30
2007,04,25,15,55,11.30
2007,04,25,15,56,11.20
2007,04,25,15,57,11.20
2007,04,25,15,58,11.20
2007,04,25,15,59,11.20
2007,04,25,16,00,11.30
2007,04,25,16,01,11.40
2007,04,25,16,02,11.40
2007,04,25,16,03,11.40
2007,04,25,16,04,11.30
2007,04,25,16,05,11.20
2007,04,25,16,06,11.20
2007,04,25,16,07,11.10
2007,04,25,16,08,11.10
2007,04,25,16,09,11.10
2007,04,25,16,10,11.10
2007,04,25,16,11,11.10
2007,04,25,16,12,11.10
2007,04,25,16,13,11.10
2007,04,25,16,14,11.10
2007,04,25,16,15,11.10
2007,04,25,16,16,11.10
2007,04,25,16,17,11.10
2007,04,25,16,18,11.20
2007,04,25,16,19,11.20
2007,04,25,16,20,11.20
2007,04,25,16,21,11.20
2007,04,25,16,22,11.20
2007,04,25,16,23,11.20
2007,04,25,16,24,11.20
2007,04,25,16,25,11.20
2007,04,25,16,26,11.20
2007,04,25,16,27,11.20
2007,04,25,16,28,11.20
2007,04,25,16,29,11.20
2007,04,25,16,30,11.10
2007,04,25,16,31,11.10
2007,04,25,16,32,11.10
2007,04,25,16,33,11.10
2007,04,25,16,34,11.10
2007,04,25,16,35,11.10
2007,04,25,16,36,11.20
2007,04,25,16,37,11.20
2007,04,25,16,38,11.20
2007,04,25,16,39,11.30
2007,04,25,16,40,11.30
2007,04,25,16,41,11.30
2007,04,25,16,42,11.30
2007,04,25,16,43,11.30
2007,04,25,16,44,11.30
2007,04,25,16,45,11.30
2007,04,25,16,46,11.20
2007,04,25,16,47,11.30
2007,04,25,16,48,11.30
2007,04,25,16,49,11.30
2007,04,25,16,50,11.20
2007,04,25,16,51,11.20
2007,04,25,16,52,11.20
2007,04,25,16,53,11.30
2007,04,25,16,54,11.30
2007,04,25,16,55,11.30
2007,04,25,16,56,11.30
2007,04,25,16,57,11.20
2007,04,25,16,58,11.20
2007,04,25,16,59,11.20
2007,04,25,17,00,11.20
2007,04,25,17,01,11.20
2007,04,25,17,02,11.20
2007,04,25,17,03,11.20
2007,04,25,17,04,11.20
2007,04,25,17,05,11.20
2007,04,25,17,06,11.20
2007,04,25,17,07,11.20
2007,04,25,17,08,11.20
2007,04,25,17,09,11.20
2007,04,25,17,10,11.20
2007,04,25,17,11,11.20
2007,04,25,17,12,11.20
2007,04,25,17,13,11.20
2007,04,25,17,14,11.20
2007,04,25,17,15,11.20
2007,04,25,17,16,11.20
2007,04,25,17,17,11.10
2007,04,25,17,18,11.10
2007,04,25,17,19,11.10
2007,04,25,17,20,11.10
2007,04,25,17,21,11.10
2007,04,25,17,22,11.10
2007,04,25,17,23,11.10
2007,04,25,17,24,11.10
2007,04,25,17,25,11.10
2007,04,25,17,26,11.10
2007,04,25,17,27,11.10
2007,04,25,17,28,11.00
2007,04,25,17,29,11.00
2007,04,25,17,30,10.90
2007,04,25,17,31,10.90
2007,04,25,17,32,10.90
2007,04,25,17,33,10.80
2007,04,25,17,34,10.80
2007,04,25,17,35,10.80
2007,04,25,17,36,10.70
2007,04,25,17,37,10.70
2007,04,25,17,38,10.70
2007,04,25,17,39,10.60
2007,04,25,17,40,10.60
2007,04,25,17,41,10.60
2007,04,25,17,42,10.60
2007,04,25,17,43,10.60